2023/01/31 00:00:00,96.0,-2.7
2023/01/31 00:10:00,96.0,-2.5
2023/01/31 00:20:00,95.9,-3.0
2023/01/31 00:30:00,95.9,-3.2
2023/01/31 00:40:00,95.9,-3.3
2023/01/31 00:50:00,95.9,-4.0
2023/01/31 01:00:00,95.9,-3.7
2023/01/31 01:10:00,95.8,-3.6
2023/01/31 01:20:00,95.8,-3.5
2023/01/31 01:30:00,95.7,-2.9
2023/01/31 01:40:00,95.4,-2.8
2023/01/31 01:50:00,95.4,-2.6
2023/01/31 02:00:00,95.4,-2.6
2023/01/31 02:10:00,96.0,-2.7
2023/01/31 02:20:00,96.0,-3.1
2023/01/31 02:30:00,95.9,-3.2
2023/01/31 02:40:00,95.9,-3.0
2023/01/31 02:50:00,95.8,-3.0
2023/01/31 03:00:00,96.0,-2.7
2023/01/31 03:10:00,95.6,-2.8
2023/01/31 03:20:00,95.2,-2.8
2023/01/31 03:30:00,95.4,-2.5
2023/01/31 03:40:00,95.9,-2.6
2023/01/31 03:50:00,95.9,-2.3
2023/01/31 04:00:00,95.8,-2.4
2023/01/31 04:10:00,95.8,-2.6
2023/01/31 04:20:00,95.7,-2.5
2023/01/31 04:30:00,95.6,-2.8
2023/01/31 04:40:00,95.6,-2.7
2023/01/31 04:50:00,95.5,-2.8
2023/01/31 05:00:00,95.4,-2.7
2023/01/31 05:10:00,95.3,-2.7
2023/01/31 05:20:00,95.3,-3.3
2023/01/31 05:30:00,95.3,-3.2
2023/01/31 05:40:00,95.2,-2.8
2023/01/31 05:50:00,95.2,-3.1
2023/01/31 06:00:00,95.1,-2.9
2023/01/31 06:10:00,95.1,-3.0
2023/01/31 06:20:00,95.0,-2.7
2023/01/31 06:30:00,95.0,-2.6
2023/01/31 06:40:00,95.1,-3.0
2023/01/31 06:50:00,95.2,-2.8
2023/01/31 07:00:00,95.1,-2.5
2023/01/31 07:10:00,95.0,-2.4
2023/01/31 07:20:00,95.1,-2.6
2023/01/31 07:30:00,95.0,-2.5
2023/01/31 07:40:00,95.4,-2.4
2023/01/31 07:50:00,95.6,-2.4
2023/01/31 08:00:00,95.7,-2.2
2023/01/31 08:10:00,95.9,-2.5
2023/01/31 08:20:00,96.1,-2.1
2023/01/31 08:30:00,96.2,-2.0
2023/01/31 08:40:00,96.5,-1.9
2023/01/31 08:50:00,96.3,-2.2
2023/01/31 09:00:00,96.4,-1.8
2023/01/31 09:10:00,96.6,-1.6
2023/01/31 09:20:00,105.7,-1.3
2023/01/31 09:30:00,126.6,-1.2
2023/01/31 09:40:00,126.4,-0.7
2023/01/31 09:50:00,126.2, 1.5
2023/01/31 10:00:00,126.0, 7.6
2023/01/31 10:10:00,125.7, 8.4
2023/01/31 10:20:00,125.6, 4.0
2023/01/31 10:30:00,125.5, 2.6
2023/01/31 10:40:00,125.4, 2.4
2023/01/31 10:50:00,125.1, 6.4
2023/01/31 11:00:00,124.9, 5.5
2023/01/31 11:10:00,124.7, 6.0
2023/01/31 11:20:00,124.6, 5.5
2023/01/31 11:30:00,124.3, 5.3
2023/01/31 11:40:00,124.1, 6.2
2023/01/31 11:50:00,123.7, 6.1
2023/01/31 12:00:00,123.4, 6.7
2023/01/31 12:10:00,122.9, 7.1
2023/01/31 12:20:00,122.6, 6.8
2023/01/31 12:30:00,122.3, 6.8
2023/01/31 12:40:00,122.2, 6.8
2023/01/31 12:50:00,122.2, 6.9
2023/01/31 13:00:00,122.2, 7.1
2023/01/31 13:10:00,122.2, 6.8
2023/01/31 13:20:00,122.2, 8.8
2023/01/31 13:30:00,122.2, 7.2
2023/01/31 13:40:00,122.2, 7.7
2023/01/31 13:50:00,122.2, 7.1
2023/01/31 14:00:00,121.8, 8.4
2023/01/31 14:10:00,121.2, 7.8
2023/01/31 14:20:00,121.2, 8.4
2023/01/31 14:30:00,115.9, 5.1
2023/01/31 14:40:00,117.0, 4.6
2023/01/31 14:50:00,117.2, 4.3
2023/01/31 15:00:00,116.6, 4.2
2023/01/31 15:10:00,116.8, 3.1
2023/01/31 15:20:00,117.1, 3.1
2023/01/31 15:30:00,117.4, 2.5
2023/01/31 15:40:00,117.4, 2.1
2023/01/31 15:50:00,117.5, 1.6
2023/01/31 16:00:00,117.5, 1.8
2023/01/31 16:10:00,117.5, 1.7
2023/01/31 16:20:00,117.8, 1.0
2023/01/31 16:30:00,117.9, 0.9
2023/01/31 16:40:00,118.1, 0.5
2023/01/31 16:50:00,118.2, 0.3
2023/01/31 17:00:00,118.1, 0.0
2023/01/31 17:10:00,118.1,-0.3
2023/01/31 17:20:00,118.0,-0.6
2023/01/31 17:30:00,117.9,-0.7
2023/01/31 17:40:00,117.9,-0.4
2023/01/31 17:50:00,118.0,-0.6
2023/01/31 18:00:00,118.2,-0.9
2023/01/31 18:10:00,118.0,-1.1
2023/01/31 18:20:00,117.9,-1.5
2023/01/31 18:30:00,117.9,-1.4
2023/01/31 18:40:00,117.8,-1.6
2023/01/31 18:50:00,117.8,-1.5
2023/01/31 19:00:00,117.7,-1.6
2023/01/31 19:10:00,117.7,-1.5
2023/01/31 19:20:00,117.6,-1.7
2023/01/31 19:30:00,117.5,-2.2
2023/01/31 19:40:00,117.4,-1.9
2023/01/31 19:50:00,117.3,-2.0
2023/01/31 20:00:00,117.3,-1.8
2023/01/31 20:10:00,117.1,-2.1
2023/01/31 20:20:00,117.1,-1.8
2023/01/31 20:30:00,117.0,-2.0
2023/01/31 20:40:00,116.9,-2.1
2023/01/31 20:50:00,116.8,-1.7
2023/01/31 21:00:00,116.7,-1.8
2023/01/31 21:10:00,116.7,-1.9
2023/01/31 21:20:00,116.6,-2.0
2023/01/31 21:30:00,116.6,-1.8
2023/01/31 21:40:00,116.4,-2.3
2023/01/31 21:50:00,116.4,-2.6
2023/01/31 22:00:00,116.3,-2.4
2023/01/31 22:10:00,116.3,-2.2
2023/01/31 22:20:00,116.3,-2.3
2023/01/31 22:30:00,116.2,-2.3
2023/01/31 22:40:00,116.2,-2.1
2023/01/31 22:50:00,116.2,-2.4
2023/01/31 23:00:00,116.1,-2.2
2023/01/31 23:10:00,116.0,-2.1
2023/01/31 23:20:00,116.0,-2.0
2023/01/31 23:30:00,115.9,-1.9
2023/01/31 23:40:00,115.9,-2.0
2023/01/31 23:50:00,115.7,-1.7
